Location: Baix
(44.7118°N, 4.7648°E)
Time: 08:08:09
(UTC+00:00)

A-11 Canister half - Pass Details

Date: 04 December 2020
Orbit: 1517 x 1683 km, 47.2° (Epoch: 22 January)

Event Time Altitude Azimuth Distance (km) Brightness Sun altitude
Rises 16:50:55 0° 294° (WNW) 4,915 12.4 -8.7°
Reaches altitude 10° 16:54:23 10° 286° (WNW) 3,937 12.0 -9.3°
Maximum altitude 17:03:13 36° 225° (SW) 2,451 10.7 -10.8°
Drops below altitude 10° 17:12:02 10° 164° (SSE) 3,921 11.2 -12.2°
Sets 17:15:30 0° 156° (SSE) 4,893 11.6 -12.8°
